Tracking 30264 objects as of 16-Feb-2025
HD Live streaming from Space Station
objects crossing your sky now

PEGASUS DEB

Track PEGASUS DEB now!
10-day predictions


NORAD ID: 24594
Int'l Code: 1994-029YW
Perigee: 542.0 km
Apogee: 1,218.6 km
Inclination: 81.5 °
Period: 102.4 minutes
Semi major axis: 7251 km
RCS: 0.0131 m2 (small)
Launch date: May 19, 1994
Source: United States (US)
Launch site: AIR FORCE WESTERN TEST RANGE (AFWTR)

Note: This is SATELLITE DEBRIS
Your satellite tracking list
Your tracking list is empty




NASA's NSSDC Master Catalog

Two Line Element Set (TLE):
1 24594U 94029YW  25046.12743227  .00013089  00000-0  29361-2 0  9997
2 24594  81.4623 101.5297 0466502 275.0117  79.7975 14.05980803439032
Source of the keplerian elements: AFSPC